AOBA-VELOX 3 (41935 NORAD) Tracking and Keplerian Element Data

This shows tracking and keplerian element data for the satellite.

Feedback or suggestion? Click here.




ElementValue
Catalog41935
NameAOBA-VELOX 3
Epoch Orbit10278
Epoch Day305.47522705
Epoch Year2018
RAAN332.8723
Inclination51.6243
Eccentricity0.0002264
Argument of Perigee27.6675
Mean Anonmoly118.1989
Mean Motion16.38373561
Decay Rate0.06673673
L11 41935U 98067KX 18305.47522705 .06673673 12387-4 58971-3 0 9997
L22 41935 51.6243 332.8723 0002264 27.6675 118.1989 16.38373561102788

Live tracking and technical data element details for AOBA-VELOX 3 (NORAD 41935). AOBA-VELOX 3 can be tracked NOW for your location showing map with azimuth and elevation plus other details from your city location.

Track the satellite on the map from your city or location and see movement details for azimuth, elevation, latitude, longitude, range, height, and movement on the map or in text.







IsCatalogInMostPopularTable: catalog: 41935, numindb: 144
Update: records affected: 1



GetName: 41935 AOBA-VELOX 3

Hit Count: updated at: Sat, 15 Dec 2018 13:26:52 GMT